QPF
0.00 0.00 0.00 0.00 0.00 0.00 0.00 0.01 0.01 0.00 0.01 0.00 0.00 0.01 0.03 0.01 0.00 0.00 0.00 0.00 0.01 0.01 0.01 0.01 0.01 0.02 0.02 0.02 0.03 0.03 0.05 0.07 0.08 0.10 0.13 0.17 0.19 0.22 0.27 0.32 0.36 0.35 0.34 0.35
0.00 0.00 0.00 0.00 0.00 0.00 0.00 0.01 0.01 0.00 0.01 0.00 0.01 0.05 0.09 0.07 0.02 0.01 0.01 0.00 0.01 0.01 0.01 0.01 0.00 0.01 0.01 0.02 0.02 0.03 0.04 0.06 0.07 0.08 0.10 0.14 0.16 0.17 0.16 0.17 0.20 0.23 0.27 0.31
0.01 0.01 0.00 0.00 0.00 0.00 0.00 0.00 0.00 0.02 0.04 0.01 0.03 0.14 0.18 0.19 0.09 0.03 0.01 0.00 0.00 0.00 0.01 0.02 0.01 0.01 0.00 0.01 0.01 0.02 0.02 0.03 0.04 0.05 0.06 0.08 0.10 0.12 0.14 0.14 0.15 0.15 0.17 0.23
0.01 0.00 0.00 0.00 0.00 0.00 0.01 0.01 0.00 0.01 0.02 0.01 0.03 0.16 0.32 0.39 0.31 0.13 0.04 0.01 0.01 0.01 0.01 0.01 0.01 0.01 0.00 0.00 0.00 0.00 0.01 0.02 0.03 0.04 0.06 0.07 0.08 0.08 0.08 0.08 0.08 0.09 0.09 0.14
0.01 0.00 0.00 0.00 0.00 0.00 0.00 0.00 0.00 0.00 0.01 0.02 0.07 0.19 0.40 0.45 0.36 0.16 0.04 0.01 0.01 0.01 0.01 0.01 0.01 0.00 0.00 0.00 0.00 0.01 0.02 0.02 0.03 0.05 0.06 0.06 0.05 0.05 0.05 0.06 0.06 0.06 0.06 0.07
0.01 0.01 0.00 0.00 0.00 0.00 0.00 0.00 0.01 0.02 0.04 0.09 0.13 0.22 0.39 0.39 0.24 0.11 0.04 0.01 0.01 0.01 0.01 0.01 0.01 0.00 0.01 0.01 0.01 0.01 0.02 0.03 0.03 0.03 0.04 0.05 0.05 0.05 0.04 0.05 0.05 0.06 0.05 0.07
0.03 0.04 0.01 0.00 0.00 0.00 0.00 0.00 0.05 0.17 0.30 0.27 0.20 0.23 0.28 0.16 0.07 0.03 0.02 0.02 0.01 0.00 0.00 0.01 0.01 0.00 0.00 0.00 0.00 0.00 0.01 0.02 0.03 0.03 0.04 0.05 0.05 0.04 0.04 0.04 0.05 0.05 0.04 0.05
0.06 0.06 0.02 0.00 0.00 0.00 0.00 0.00 0.02 0.06 0.13 0.17 0.17 0.23 0.15 0.04 0.02 0.01 0.01 0.01 0.00 0.00 0.00 0.00 0.00 0.00 0.00 0.00 0.00 0.00 0.01 0.02 0.02 0.02 0.03 0.04 0.04 0.03 0.02 0.04 0.04 0.04 0.03 0.03
0.03 0.02 0.01 0.00 0.00 0.00 0.00 0.00 0.00 0.00 0.01 0.04 0.12 0.16 0.09 0.04 0.02 0.01 0.01 0.00 0.00 0.00 0.00 0.00 0.00 0.00 0.00 0.00 0.00 0.00 0.01 0.01 0.01 0.01 0.02 0.02 0.03 0.02 0.02 0.03 0.03 0.02 0.02 0.02
0.00 0.01 0.01 0.00 0.00 0.00 0.00 0.00 0.00 0.00 0.00 0.02 0.08 0.14 0.13 0.06 0.02 0.01 0.01 0.00 0.00 0.00 0.00 0.00 0.00 0.00 0.00 0.00 0.00 0.00 0.00 0.00 0.00 0.00 0.01 0.01 0.01 0.02 0.02 0.02 0.02 0.02 0.02 0.02
0.00 0.00 0.01 0.01 0.01 0.00 0.00 0.00 0.00 0.00 0.00 0.01 0.02 0.07 0.04 0.02 0.01 0.00 0.00 0.00 0.00 0.00 0.00 0.00 0.00 0.00 0.00 0.00 0.00 0.00 0.00 0.00 0.00 0.00 0.00 0.00 0.00 0.01 0.02 0.02 0.01 0.02 0.02 0.03
0.00 0.00 0.03 0.04 0.01 0.00 0.00 0.00 0.00 0.00 0.00 0.00 0.01 0.02 0.01 0.00 0.00 0.00 0.00 0.00 0.00 0.00 0.00 0.00 0.00 0.00 0.00 0.00 0.00 0.00 0.00 0.00 0.00 0.00 0.00 0.00 0.00 0.01 0.02 0.02 0.02 0.02 0.03 0.04
0.00 0.00 0.06 0.14 0.07 0.01 0.00 0.00 0.00 0.00 0.00 0.00 0.00 0.00 0.00 0.00 0.00 0.00 0.00 0.00 0.00 0.00 0.00 0.00 0.00 0.00 0.00 0.00 0.00 0.00 0.00 0.00 0.00 0.00 0.00 0.00 0.00 0.01 0.03 0.03 0.03 0.03 0.04 0.05
0.00 0.00 0.01 0.04 0.03 0.00 0.00 0.00 0.00 0.00 0.00 0.00 0.00 0.00 0.00 0.00 0.00 0.00 0.00 0.00 0.00 0.00 0.00 0.00 0.00 0.00 0.00 0.00 0.00 0.00 0.00 0.00 0.00 0.00 0.00 0.01 0.01 0.02 0.03 0.04 0.05 0.05 0.05 0.05
0.00 0.00 0.00 0.00 0.00 0.00 0.00 0.00 0.00 0.00 0.00 0.00 0.00 0.00 0.00 0.00 0.00 0.00 0.00 0.00 0.00 0.00 0.00 0.00 0.00 0.00 0.00 0.00 0.00 0.00 0.00 0.00 0.01 0.01 0.01 0.02 0.03 0.04 0.04 0.05 0.06 0.07 0.06 0.06
0.00 0.00 0.00 0.00 0.00 0.00 0.00 0.00 0.00 0.00 0.00 0.00 0.00 0.00 0.00 0.00 0.00 0.00 0.00 0.00 0.00 0.00 0.00 0.00 0.00 0.00 0.00 0.00 0.00 0.01 0.01 0.01 0.01 0.02 0.02 0.03 0.04 0.04 0.05 0.05 0.06 0.07 0.08 0.09
0.00 0.00 0.00 0.00 0.00 0.00 0.00 0.00 0.00 0.00 0.00 0.00 0.00 0.00 0.00 0.00 0.00 0.00 0.00 0.00 0.00 0.00 0.00 0.00 0.00 0.00 0.00 0.00 0.01 0.01 0.01 0.02 0.02 0.03 0.03 0.04 0.04 0.05 0.06 0.05 0.07 0.09 0.10 0.11
0.00 0.00 0.00 0.00 0.00 0.01 0.00 0.00 0.00 0.00 0.00 0.00 0.00 0.00 0.00 0.00 0.00 0.00 0.00 0.00 0.00 0.00 0.00 0.00 0.00 0.00 0.00 0.00 0.01 0.01 0.01 0.02 0.02 0.03 0.03 0.04 0.05 0.05 0.07 0.08 0.09 0.10 0.11 0.10
0.00 0.00 0.00 0.00 0.00 0.00 0.00 0.00 0.00 0.00 0.00 0.00 0.00 0.00 0.00 0.00 0.00 0.00 0.00 0.00 0.00 0.00 0.00 0.00 0.00 0.00 0.01 0.01 0.02 0.02 0.02 0.02 0.03 0.03 0.04 0.04 0.05 0.07 0.07 0.08 0.10 0.10 0.09 0.10
0.00 0.00 0.00 0.00 0.00 0.00 0.00 0.00 0.00 0.00 0.00 0.00 0.00 0.00 0.00 0.00 0.00 0.00 0.00 0.00 0.00 0.00 0.00 0.00 0.00 0.00 0.01 0.02 0.02 0.02 0.03 0.03 0.03 0.03 0.04 0.04 0.07 0.08 0.08 0.09 0.11 0.12 0.11 0.10
0.00 0.00 0.00 0.00 0.00 0.00 0.00 0.00 0.00 0.00 0.00 0.00 0.00 0.00 0.00 0.00 0.00 0.00 0.00 0.00 0.00 0.00 0.00 0.00 0.00 0.01 0.01 0.02 0.03 0.03 0.03 0.04 0.03 0.04 0.05 0.06 0.08 0.09 0.09 0.10 0.11 0.12 0.12 0.12
0.00 0.00 0.00 0.00 0.00 0.00 0.00 0.00 0.00 0.00 0.00 0.00 0.00 0.00 0.00 0.00 0.00 0.00 0.00 0.00 0.00 0.00 0.00 0.00 0.01 0.01 0.01 0.02 0.03 0.03 0.03 0.04 0.04 0.04 0.05 0.06 0.08 0.07 0.06 0.10 0.11 0.12 0.12 0.13
0.00 0.00 0.00 0.00 0.00 0.00 0.00 0.00 0.00 0.00 0.00 0.00 0.00 0.00 0.00 0.00 0.00 0.00 0.00 0.00 0.00 0.00 0.00 0.00 0.01 0.01 0.01 0.02 0.03 0.03 0.04 0.04 0.04 0.05 0.06 0.07 0.07 0.08 0.09 0.10 0.12 0.13 0.14 0.14
0.00 0.00 0.00 0.00 0.00 0.00 0.00 0.00 0.00 0.00 0.00 0.00 0.00 0.00 0.00 0.00 0.00 0.00 0.00 0.00 0.00 0.00 0.00 0.01 0.01 0.01 0.02 0.02 0.02 0.03 0.04 0.04 0.05 0.06 0.07 0.07 0.08 0.08 0.09 0.12 0.13 0.13 0.13 0.13
0.00 0.00 0.00 0.00 0.00 0.00 0.00 0.00 0.00 0.00 0.00 0.00 0.00 0.00 0.00 0.00 0.00 0.00 0.00 0.00 0.00 0.01 0.01 0.01 0.01 0.02 0.01 0.01 0.02 0.03 0.04 0.04 0.05 0.06 0.07 0.07 0.08 0.09 0.10 0.11 0.09 0.07 0.07 0.05
0.00 0.00 0.00 0.00 0.00 0.00 0.00 0.00 0.00 0.00 0.00 0.00 0.00 0.00 0.00 0.00 0.00 0.00 0.00 0.00 0.00 0.01 0.01 0.01 0.01 0.01 0.01 0.01 0.02 0.03 0.04 0.04 0.06 0.07 0.07 0.07 0.08 0.09 0.11 0.12 0.10 0.05 0.02 0.01
MSLP
1007.25 1007.66 1007.75 1007.54 1007.10 1006.55 1006.02 1005.61 1005.38 1005.38 1005.57 1005.91 1006.35 1006.84 1007.33 1007.82 1008.29 1008.74 1009.18 1009.61 1009.99 1010.30 1010.52 1010.63 1010.62 1010.52 1010.36 1010.19 1010.05 1009.96 1009.94 1009.97 1010.03 1010.07 1010.07 1010.00 1009.87 1009.69 1009.52 1009.39 1009.34 1009.37 1009.47 1009.61
1007.67 1007.92 1007.83 1007.46 1006.93 1006.38 1005.94 1005.72 1005.78 1006.08 1006.59 1007.21 1007.86 1008.46 1008.97 1009.36 1009.67 1009.92 1010.14 1010.35 1010.56 1010.74 1010.87 1010.93 1010.89 1010.76 1010.58 1010.38 1010.21 1010.09 1010.05 1010.08 1010.15 1010.22 1010.24 1010.20 1010.07 1009.88 1009.66 1009.46 1009.32 1009.25 1009.25 1009.30
1008.06 1008.13 1007.86 1007.35 1006.77 1006.26 1005.96 1005.99 1006.35 1007.01 1007.85 1008.75 1009.59 1010.27 1010.74 1010.99 1011.07 1011.05 1010.98 1010.93 1010.90 1010.91 1010.93 1010.92 1010.85 1010.73 1010.55 1010.36 1010.20 1010.09 1010.06 1010.11 1010.20 1010.30 1010.36 1010.33 1010.21 1010.00 1009.74 1009.46 1009.22 1009.04 1008.94 1008.90
1008.44 1008.31 1007.88 1007.27 1006.65 1006.22 1006.10 1006.38 1007.06 1008.05 1009.20 1010.34 1011.33 1012.04 1012.43 1012.49 1012.32 1011.99 1011.61 1011.27 1011.01 1010.84 1010.75 1010.69 1010.62 1010.52 1010.38 1010.24 1010.11 1010.03 1010.03 1010.10 1010.22 1010.35 1010.43 1010.43 1010.31 1010.08 1009.76 1009.41 1009.08 1008.80 1008.60 1008.47
1008.82 1008.53 1007.95 1007.26 1006.65 1006.30 1006.35 1006.87 1007.82 1009.08 1010.47 1011.78 1012.85 1013.55 1013.82 1013.69 1013.25 1012.63 1011.96 1011.36 1010.90 1010.59 1010.43 1010.35 1010.31 1010.27 1010.20 1010.12 1010.04 1010.01 1010.03 1010.12 1010.26 1010.40 1010.49 1010.49 1010.37 1010.12 1009.76 1009.35 1008.93 1008.56 1008.27 1008.07
1009.24 1008.80 1008.11 1007.37 1006.78 1006.51 1006.70 1007.40 1008.54 1009.98 1011.51 1012.90 1013.98 1014.61 1014.75 1014.42 1013.75 1012.90 1012.01 1011.23 1010.64 1010.26 1010.07 1010.03 1010.05 1010.09 1010.10 1010.09 1010.06 1010.05 1010.09 1010.18 1010.31 1010.45 1010.53 1010.53 1010.40 1010.13 1009.74 1009.27 1008.79 1008.35 1007.99 1007.73
1009.66 1009.11 1008.37 1007.61 1007.04 1006.84 1007.12 1007.92 1009.15 1010.65 1012.20 1013.58 1014.59 1015.11 1015.11 1014.62 1013.79 1012.79 1011.79 1010.93 1010.30 1009.92 1009.78 1009.81 1009.92 1010.05 1010.14 1010.18 1010.18 1010.18 1010.21 1010.27 1010.37 1010.48 1010.55 1010.53 1010.39 1010.11 1009.70 1009.21 1008.69 1008.20 1007.79 1007.50
1010.02 1009.43 1008.68 1007.94 1007.41 1007.25 1007.56 1008.37 1009.59 1011.03 1012.50 1013.77 1014.66 1015.05 1014.93 1014.33 1013.43 1012.39 1011.38 1010.54 1009.97 1009.67 1009.63 1009.76 1009.97 1010.17 1010.32 1010.39 1010.39 1010.37 1010.35 1010.36 1010.41 1010.48 1010.52 1010.48 1010.34 1010.06 1009.65 1009.15 1008.61 1008.10 1007.66 1007.35
1010.26 1009.70 1009.00 1008.31 1007.83 1007.70 1008.00 1008.74 1009.85 1011.15 1012.45 1013.54 1014.26 1014.53 1014.31 1013.68 1012.79 1011.80 1010.89 1010.17 1009.73 1009.57 1009.65 1009.89 1010.18 1010.44 1010.61 1010.67 1010.65 1010.57 1010.48 1010.43 1010.41 1010.42 1010.43 1010.38 1010.24 1009.97 1009.58 1009.09 1008.56 1008.04 1007.58 1007.25
1010.34 1009.87 1009.27 1008.69 1008.27 1008.16 1008.42 1009.05 1009.99 1011.08 1012.15 1013.03 1013.58 1013.72 1013.46 1012.85 1012.05 1011.21 1010.46 1009.93 1009.66 1009.65 1009.86 1010.18 1010.52 1010.80 1010.95 1010.97 1010.88 1010.73 1010.57 1010.43 1010.35 1010.31 1010.29 1010.23 1010.09 1009.85 1009.48 1009.02 1008.50 1007.98 1007.52 1007.16
1010.24 1009.91 1009.47 1009.03 1008.71 1008.62 1008.83 1009.33 1010.07 1010.93 1011.76 1012.42 1012.81 1012.86 1012.60 1012.07 1011.41 1010.75 1010.21 1009.88 1009.79 1009.92 1010.22 1010.58 1010.93 1011.17 1011.28 1011.23 1011.06 1010.83 1010.59 1010.38 1010.24 1010.16 1010.11 1010.05 1009.93 1009.70 1009.37 1008.93 1008.42 1007.90 1007.43 1007.04
1010.00 1009.87 1009.62 1009.35 1009.15 1009.10 1009.27 1009.65 1010.20 1010.83 1011.44 1011.90 1012.16 1012.16 1011.92 1011.50 1011.01 1010.55 1010.21 1010.06 1010.11 1010.33 1010.67 1011.03 1011.33 1011.51 1011.53 1011.40 1011.16 1010.86 1010.55 1010.30 1010.12 1010.01 1009.95 1009.88 1009.76 1009.54 1009.22 1008.79 1008.29 1007.77 1007.27 1006.85
1009.73 1009.80 1009.76 1009.66 1009.59 1009.61 1009.76 1010.04 1010.43 1010.88 1011.29 1011.60 1011.75 1011.73 1011.54 1011.24 1010.91 1010.63 1010.46 1010.44 1010.57 1010.83 1011.15 1011.45 1011.67 1011.75 1011.68 1011.48 1011.17 1010.82 1010.49 1010.21 1010.01 1009.89 1009.80 1009.72 1009.59 1009.37 1009.04 1008.60 1008.09 1007.55 1007.02 1006.55
1009.53 1009.77 1009.92 1010.01 1010.07 1010.15 1010.30 1010.52 1010.79 1011.09 1011.36 1011.56 1011.65 1011.62 1011.49 1011.30 1011.10 1010.95 1010.89 1010.94 1011.10 1011.33 1011.58 1011.78 1011.89 1011.87 1011.72 1011.46 1011.12 1010.76 1010.42 1010.15 1009.95 1009.81 1009.70 1009.58 1009.41 1009.16 1008.79 1008.33 1007.79 1007.21 1006.65 1006.14
1009.46 1009.85 1010.16 1010.38 1010.56 1010.71 1010.86 1011.04 1011.23 1011.43 1011.60 1011.72 1011.78 1011.76 1011.69 1011.58 1011.48 1011.41 1011.41 1011.48 1011.60 1011.76 1011.90 1011.98 1011.98 1011.87 1011.66 1011.37 1011.03 1010.69 1010.38 1010.12 1009.92 1009.77 1009.62 1009.45 1009.22 1008.90 1008.47 1007.95 1007.37 1006.76 1006.17 1005.63
1009.57 1010.04 1010.45 1010.77 1011.02 1011.22 1011.39 1011.54 1011.68 1011.81 1011.91 1011.99 1012.04 1012.04 1012.01 1011.96 1011.92 1011.90 1011.90 1011.94 1011.99 1012.05 1012.07 1012.04 1011.94 1011.76 1011.51 1011.22 1010.92 1010.62 1010.35 1010.12 1009.93 1009.75 1009.55 1009.30 1008.98 1008.56 1008.05 1007.46 1006.83 1006.19 1005.58 1005.04
1009.82 1010.31 1010.75 1011.12 1011.40 1011.63 1011.79 1011.92 1012.02 1012.11 1012.19 1012.24 1012.28 1012.30 1012.31 1012.30 1012.29 1012.28 1012.27 1012.25 1012.23 1012.18 1012.10 1011.97 1011.79 1011.57 1011.32 1011.06 1010.80 1010.56 1010.34 1010.14 1009.93 1009.71 1009.43 1009.09 1008.66 1008.13 1007.53 1006.88 1006.20 1005.55 1004.95 1004.43
1010.12 1010.59 1011.00 1011.36 1011.64 1011.85 1012.00 1012.11 1012.19 1012.25 1012.31 1012.36 1012.41 1012.45 1012.48 1012.50 1012.50 1012.49 1012.45 1012.38 1012.29 1012.16 1012.00 1011.80 1011.58 1011.35 1011.12 1010.90 1010.70 1010.51 1010.32 1010.13 1009.90 1009.61 1009.25 1008.80 1008.26 1007.63 1006.94 1006.23 1005.54 1004.89 1004.32 1003.85
1010.39 1010.77 1011.13 1011.43 1011.67 1011.85 1011.98 1012.07 1012.13 1012.19 1012.24 1012.29 1012.35 1012.42 1012.47 1012.51 1012.53 1012.51 1012.45 1012.35 1012.21 1012.04 1011.83 1011.60 1011.37 1011.15 1010.95 1010.77 1010.61 1010.45 1010.28 1010.07 1009.80 1009.45 1009.00 1008.44 1007.80 1007.09 1006.34 1005.60 1004.90 1004.29 1003.78 1003.38
1010.53 1010.81 1011.08 1011.31 1011.50 1011.64 1011.75 1011.82 1011.88 1011.94 1011.99 1012.06 1012.14 1012.23 1012.31 1012.37 1012.40 1012.39 1012.33 1012.22 1012.07 1011.87 1011.66 1011.43 1011.21 1011.00 1010.82 1010.67 1010.53 1010.38 1010.20 1009.96 1009.63 1009.20 1008.67 1008.03 1007.32 1006.55 1005.78 1005.04 1004.38 1003.83 1003.39 1003.08
1010.49 1010.68 1010.85 1011.02 1011.16 1011.27 1011.36 1011.44 1011.51 1011.58 1011.65 1011.74 1011.84 1011.95 1012.05 1012.14 1012.19 1012.20 1012.15 1012.06 1011.92 1011.74 1011.53 1011.32 1011.11 1010.92 1010.76 1010.60 1010.45 1010.28 1010.06 1009.77 1009.39 1008.89 1008.29 1007.61 1006.86 1006.08 1005.32 1004.63 1004.03 1003.56 1003.22 1003.00
1010.27 1010.37 1010.48 1010.59 1010.70 1010.81 1010.91 1011.01 1011.10 1011.20 1011.30 1011.42 1011.54 1011.67 1011.79 1011.90 1011.97 1012.00 1011.99 1011.93 1011.81 1011.66 1011.48 1011.29 1011.10 1010.91 1010.74 1010.57 1010.38 1010.16 1009.89 1009.53 1009.08 1008.54 1007.90 1007.19 1006.45 1005.71 1005.01 1004.39 1003.88 1003.51 1003.26 1003.14
1009.89 1009.93 1010.00 1010.09 1010.20 1010.33 1010.46 1010.60 1010.74 1010.88 1011.02 1011.16 1011.31 1011.45 1011.59 1011.71 1011.80 1011.86 1011.87 1011.84 1011.77 1011.65 1011.51 1011.33 1011.15 1010.96 1010.76 1010.54 1010.30 1010.01 1009.66 1009.24 1008.74 1008.16 1007.51 1006.82 1006.12 1005.45 1004.84 1004.32 1003.92 1003.64 1003.49 1003.44
1009.39 1009.40 1009.46 1009.56 1009.70 1009.87 1010.06 1010.26 1010.46 1010.65 1010.83 1011.00 1011.16 1011.32 1011.46 1011.58 1011.69 1011.77 1011.81 1011.81 1011.77 1011.70 1011.58 1011.43 1011.24 1011.03 1010.79 1010.51 1010.20 1009.84 1009.41 1008.93 1008.38 1007.79 1007.15 1006.50 1005.87 1005.29 1004.79 1004.38 1004.09 1003.92 1003.84 1003.86
1008.82 1008.82 1008.89 1009.02 1009.21 1009.45 1009.72 1009.99 1010.25 1010.50 1010.72 1010.92 1011.09 1011.24 1011.38 1011.50 1011.61 1011.70 1011.76 1011.80 1011.80 1011.75 1011.66 1011.52 1011.34 1011.10 1010.81 1010.48 1010.09 1009.65 1009.15 1008.61 1008.04 1007.43 1006.83 1006.24 1005.69 1005.21 1004.82 1004.53 1004.34 1004.24 1004.24 1004.29
1008.19 1008.19 1008.28 1008.46 1008.72 1009.03 1009.37 1009.72 1010.05 1010.35 1010.62 1010.84 1011.02 1011.17 1011.30 1011.42 1011.53 1011.62 1011.70 1011.76 1011.80 1011.78 1011.72 1011.59 1011.41 1011.15 1010.82 1010.43 1009.97 1009.46 1008.91 1008.32 1007.72 1007.13 1006.55 1006.03 1005.56 1005.18 1004.89 1004.69 1004.58 1004.55 1004.59 1004.66
Thickness
5806 5792 5785 5801 5813 5814 5813 5808 5807 5816 5827 5818 5806 5795 5790 5791 5784 5774 5768 5764 5760 5760 5763 5764 5764 5763 5761 5758 5755 5752 5749 5747 5745 5742 5739 5736 5734 5733 5732 5731 5729 5725 5723 5722
5791 5784 5802 5816 5818 5814 5810 5803 5805 5812 5822 5811 5796 5781 5776 5772 5769 5767 5762 5758 5756 5754 5754 5754 5754 5753 5751 5747 5745 5743 5739 5736 5735 5732 5730 5728 5725 5725 5724 5723 5721 5719 5716 5715
5780 5792 5813 5812 5809 5807 5805 5800 5797 5795 5803 5803 5788 5758 5749 5750 5754 5757 5758 5756 5754 5751 5747 5745 5744 5744 5742 5739 5737 5734 5730 5727 5724 5722 5721 5719 5716 5715 5714 5713 5712 5712 5710 5708
5793 5809 5810 5804 5803 5804 5790 5799 5799 5795 5783 5777 5776 5736 5724 5731 5730 5738 5746 5748 5747 5745 5742 5739 5737 5734 5733 5731 5730 5726 5722 5718 5714 5712 5709 5705 5702 5700 5701 5702 5703 5703 5703 5702
5783 5799 5800 5795 5802 5809 5800 5810 5803 5794 5779 5768 5749 5723 5702 5715 5717 5728 5737 5740 5740 5739 5737 5733 5730 5727 5726 5724 5721 5717 5713 5708 5705 5701 5698 5695 5692 5691 5691 5691 5692 5693 5694 5694
5784 5800 5803 5804 5815 5816 5814 5806 5796 5777 5761 5731 5720 5709 5695 5709 5718 5725 5730 5734 5734 5733 5731 5727 5725 5721 5717 5715 5711 5706 5701 5697 5694 5691 5687 5684 5681 5679 5679 5679 5680 5682 5684 5685
5757 5774 5798 5809 5801 5807 5802 5781 5757 5732 5716 5707 5720 5706 5701 5722 5732 5731 5729 5729 5730 5728 5724 5720 5716 5712 5707 5704 5700 5696 5691 5687 5684 5680 5677 5674 5671 5670 5669 5669 5669 5670 5672 5674
5743 5748 5782 5800 5797 5787 5790 5779 5751 5729 5725 5718 5716 5704 5711 5732 5738 5737 5733 5730 5727 5723 5719 5713 5709 5704 5699 5694 5689 5685 5680 5676 5674 5670 5667 5665 5662 5661 5661 5660 5659 5659 5661 5663
5754 5758 5794 5804 5810 5800 5785 5782 5789 5769 5758 5739 5720 5714 5718 5735 5734 5733 5730 5726 5720 5716 5711 5706 5702 5696 5690 5685 5680 5675 5670 5666 5663 5660 5658 5655 5653 5651 5649 5648 5647 5648 5649 5652
5786 5771 5788 5803 5805 5803 5796 5788 5776 5760 5739 5733 5725 5714 5709 5719 5721 5724 5721 5717 5713 5709 5704 5698 5693 5687 5681 5676 5671 5666 5661 5656 5653 5650 5647 5645 5642 5639 5637 5636 5635 5634 5634 5636
5799 5776 5774 5782 5773 5768 5777 5772 5766 5761 5752 5733 5723 5707 5730 5724 5723 5719 5716 5712 5706 5700 5695 5689 5683 5678 5672 5667 5661 5655 5651 5646 5642 5639 5635 5632 5631 5628 5626 5623 5622 5621 5621 5621
5796 5779 5750 5751 5772 5784 5776 5767 5759 5738 5734 5743 5733 5712 5740 5733 5726 5719 5711 5706 5700 5693 5687 5680 5674 5667 5661 5655 5650 5645 5640 5635 5631 5628 5625 5621 5619 5616 5613 5610 5608 5607 5606 5606
5784 5767 5741 5727 5742 5767 5769 5768 5762 5753 5744 5733 5722 5717 5742 5732 5723 5715 5706 5699 5692 5685 5678 5671 5664 5657 5651 5645 5640 5635 5631 5626 5622 5618 5613 5609 5605 5601 5598 5595 5593 5591 5590 5590
5785 5770 5754 5738 5745 5762 5761 5762 5759 5746 5730 5723 5722 5720 5725 5719 5711 5706 5700 5692 5686 5678 5669 5662 5655 5648 5643 5637 5632 5627 5622 5617 5612 5607 5602 5597 5592 5588 5585 5582 5580 5579 5578 5577
5785 5768 5768 5771 5775 5774 5764 5757 5753 5743 5735 5724 5721 5719 5713 5710 5705 5700 5694 5687 5678 5669 5662 5654 5647 5641 5635 5629 5624 5619 5613 5608 5602 5596 5591 5586 5582 5578 5574 5571 5569 5568 5566 5565
5782 5763 5765 5764 5772 5771 5760 5757 5751 5743 5737 5729 5724 5717 5717 5712 5705 5696 5688 5680 5669 5661 5654 5647 5641 5634 5628 5622 5616 5610 5604 5598 5593 5587 5582 5577 5573 5569 5565 5562 5560 5558 5556 5554
5775 5762 5753 5751 5763 5761 5746 5751 5746 5738 5736 5727 5713 5710 5712 5703 5695 5688 5682 5672 5661 5654 5648 5641 5634 5627 5621 5616 5609 5602 5596 5591 5585 5579 5574 5569 5564 5560 5557 5554 5552 5549 5546 5544
5767 5759 5754 5755 5752 5729 5744 5765 5754 5739 5735 5732 5721 5713 5707 5699 5693 5687 5677 5665 5656 5649 5642 5635 5629 5622 5617 5611 5603 5596 5590 5585 5579 5573 5567 5562 5557 5553 5549 5546 5544 5541 5537 5535
5778 5759 5750 5746 5743 5743 5745 5753 5747 5733 5725 5726 5716 5709 5705 5700 5692 5683 5673 5664 5654 5646 5638 5631 5625 5618 5612 5605 5598 5591 5585 5579 5573 5567 5561 5557 5552 5547 5543 5541 5538 5535 5533 5531
5779 5767 5752 5746 5733 5728 5737 5754 5757 5740 5716 5718 5714 5705 5698 5692 5675 5672 5670 5662 5652 5643 5636 5628 5621 5614 5607 5600 5593 5586 5580 5574 5568 5562 5557 5552 5547 5543 5539 5536 5533 5531 5529 5527
5760 5758 5749 5742 5736 5741 5749 5756 5751 5717 5703 5716 5712 5703 5695 5682 5673 5671 5667 5658 5649 5640 5633 5625 5617 5610 5602 5596 5589 5582 5576 5570 5564 5559 5554 5549 5545 5541 5538 5535 5531 5529 5527 5526
5760 5752 5748 5743 5731 5726 5751 5747 5727 5716 5721 5717 5710 5702 5692 5684 5679 5672 5663 5654 5645 5637 5629 5622 5614 5606 5599 5593 5586 5579 5573 5567 5562 5557 5552 5548 5544 5541 5539 5534 5531 5529 5527 5526
5768 5760 5754 5743 5739 5746 5751 5742 5737 5732 5721 5715 5708 5701 5693 5684 5676 5668 5660 5651 5642 5634 5626 5618 5611 5604 5597 5591 5584 5577 5572 5566 5561 5556 5552 5548 5544 5541 5538 5535 5532 5530 5528 5526
5769 5770 5758 5747 5751 5753 5751 5746 5739 5732 5721 5715 5709 5701 5692 5682 5674 5666 5657 5648 5639 5632 5624 5616 5608 5601 5595 5589 5583 5576 5572 5566 5560 5556 5552 5549 5545 5542 5539 5536 5533 5530 5528 5526
5767 5762 5755 5745 5749 5749 5747 5742 5736 5729 5722 5714 5707 5700 5691 5681 5672 5664 5655 5646 5637 5629 5622 5614 5606 5599 5593 5588 5582 5577 5572 5566 5561 5557 5554 5551 5547 5544 5541 5537 5532 5530 5525 5522
5773 5764 5751 5743 5748 5743 5739 5741 5735 5725 5717 5711 5703 5696 5690 5681 5671 5662 5653 5644 5636 5628 5620 5612 5605 5598 5593 5587 5582 5577 5572 5566 5561 5558 5555 5552 5549 5547 5544 5541 5537 5529 5526 5521